Location: Unspecified
(29.9680°N, 0.0000°E)
Time: 03:21:05
(UTC+00:00)

Explorer 7 - Pass Details

Date: 25 June 2019
Orbit: 485 x 680 km, 50.3° (Epoch: 19 July)

Event Time Altitude Azimuth Distance (km) Brightness Sun altitude
Rises 12:18:51 0° 330° (NNW) 2,929 10.5 82.5°
Reaches altitude 10° 12:22:41 10° 2° (N) 2,060 9.8 82.0°
Maximum altitude 12:24:31 12° 25° (NNE) 1,942 9.7 81.8°
Drops below altitude 10° 12:26:22 10° 47° (NE) 2,088 9.8 81.6°
Sets 12:30:19 0° 78° (ENE) 3,021 10.5 81.0°
